When you browse on this site, cookies collect data to enhance your experience and personalize the content and advertising you see.
Visit our Privacy Policy to learn more. By continuing to use the site, you agree to this use of cookies and data.
  • In Latvia
  • List of Countries
  • For 7 days
  • Water Temperature
  • Weather Map
  • Weather Widgets
  • user-avatar
    Login

    Hourly Weather Tulsa

    Today, 15 September, Sunday

    Time Temperature Precipitation Wind Pressure Humidity
    00:00 +27°C° 0 mm 3 mps 745 mmHg 74%
    01:00 +26°C° 0 mm 3 mps 745 mmHg 75%
    02:00 +26°C° 0 mm 3 mps 745 mmHg 76%
    03:00 +25°C° 0 mm 3 mps 745 mmHg 77%
    04:00 +25°C° 0 mm 3 mps 745 mmHg 76%
    05:00 +25°C° 0 mm 3 mps 745 mmHg 76%
    06:00 +25°C° 0 mm 3 mps 745 mmHg 76%
    07:00 +26°C° 0 mm 3 mps 745 mmHg 73%
    08:00 +28°C° 0 mm 4 mps 745 mmHg 69%
    09:00 +29°C° 0 mm 4 mps 746 mmHg 66%
    10:00 +32°C° 0 mm 4 mps 746 mmHg 61%
    11:00 +33°C° 0 mm 4 mps 745 mmHg 56%
    12:00 +35°C° 0 mm 4 mps 745 mmHg 50%
    13:00 +35°C° 0 mm 4 mps 745 mmHg 48%
    14:00 +36°C° 0 mm 3 mps 744 mmHg 46%
    15:00 +36°C° 0 mm 3 mps 744 mmHg 43%
    16:00 +35°C° 0 mm 2 mps 743 mmHg 47%
    17:00 +34°C° 0 mm 2 mps 743 mmHg 51%
    18:00 +31°C° 0 mm 2 mps 743 mmHg 56%
    19:00 +30°C° 0 mm 2 mps 743 mmHg 56%
    20:00 +30°C° 0 mm 2 mps 744 mmHg 56%
    21:00 +29°C° 0 mm 2 mps 744 mmHg 56%
    22:00 +28°C° 0 mm 2 mps 744 mmHg 59%
    23:00 +28°C° 0 mm 2 mps 744 mmHg 61%

    Tomorrow, 16 September, Monday

    Time Temperature Precipitation Wind Pressure Humidity
    00:00 +27°C° 0 mm 2 mps 744 mmHg 63%
    01:00 +27°C° 0 mm 2 mps 744 mmHg 64%
    02:00 +26°C° 0 mm 2 mps 744 mmHg 65%
    03:00 +26°C° 0 mm 2 mps 744 mmHg 66%
    04:00 +26°C° 0 mm 2 mps 744 mmHg 67%
    05:00 +25°C° 0 mm 2 mps 744 mmHg 69%
    06:00 +25°C° 0 mm 2 mps 744 mmHg 70%
    07:00 +26°C° 0 mm 2 mps 745 mmHg 68%
    08:00 +28°C° 0 mm 2 mps 745 mmHg 66%
    09:00 +29°C° 0 mm 2 mps 745 mmHg 63%
    10:00 +31°C° 0 mm 2 mps 745 mmHg 59%
    11:00 +34°C° 0 mm 3 mps 745 mmHg 54%
    12:00 +35°C° 0 mm 3 mps 745 mmHg 49%
    13:00 +36°C° 0 mm 3 mps 744 mmHg 47%
    14:00 +36°C° 0 mm 3 mps 744 mmHg 46%
    15:00 +36°C° 0 mm 3 mps 743 mmHg 44%
    16:00 +35°C° 0 mm 3 mps 743 mmHg 48%
    17:00 +34°C° 0 mm 2 mps 743 mmHg 52%
    18:00 +32°C° 0 mm 2 mps 742 mmHg 55%
    19:00 +31°C° 0 mm 2 mps 743 mmHg 57%
    20:00 +29°C° 0 mm 2 mps 743 mmHg 59%
    21:00 +28°C° 0 mm 2 mps 743 mmHg 61%
    22:00 +28°C° 0 mm 1 mps 743 mmHg 62%
    23:00 +28°C° 0 mm 1 mps 743 mmHg 63%

    Day after tomorrow, 17 September, Tuesday

    Time Temperature Precipitation Wind Pressure Humidity
    00:00 +27°C° 0 mm 1 mps 743 mmHg 63%
    01:00 +27°C° 0 mm 1 mps 743 mmHg 65%
    02:00 +26°C° 0 mm 1 mps 743 mmHg 67%
    03:00 +26°C° 0 mm 1 mps 743 mmHg 69%
    04:00 +26°C° 0 mm 1 mps 743 mmHg 70%
    05:00 +25°C° 0 mm 1 mps 743 mmHg 72%
    06:00 +25°C° 0 mm 1 mps 743 mmHg 73%
    07:00 +27°C° 0 mm 2 mps 743 mmHg 70%
    08:00 +28°C° 0 mm 2 mps 744 mmHg 68%
    09:00 +30°C° 0 mm 3 mps 744 mmHg 65%
    10:00 +31°C° 0 mm 3 mps 744 mmHg 61%
    11:00 +33°C° 0 mm 4 mps 744 mmHg 56%
    12:00 +35°C° 0 mm 4 mps 743 mmHg 52%
    13:00 +35°C° 0 mm 5 mps 743 mmHg 51%
    14:00 +35°C° 0 mm 5 mps 742 mmHg 51%
    15:00 +35°C° 0 mm 5 mps 742 mmHg 50%
    16:00 +34°C° 0 mm 4 mps 741 mmHg 54%
    17:00 +33°C° 0 mm 3 mps 741 mmHg 58%
    18:00 +31°C° 0 mm 3 mps 741 mmHg 62%
    19:00 +30°C° 0 mm 3 mps 741 mmHg 63%
    20:00 +29°C° 0 mm 3 mps 742 mmHg 63%
    21:00 +29°C° 0 mm 3 mps 742 mmHg 63%
    22:00 +28°C° 0 mm 3 mps 742 mmHg 64%
    23:00 +28°C° 0 mm 3 mps 742 mmHg 64%

    18 September, Wednesday

    Time Temperature Precipitation Wind Pressure Humidity
    00:00 +27°C° 0 mm 3 mps 741 mmHg 64%
    01:00 +27°C° 0 mm 3 mps 742 mmHg 67%
    02:00 +26°C° 0 mm 3 mps 742 mmHg 69%
    03:00 +26°C° 0 mm 3 mps 742 mmHg 72%
    04:00 +26°C° 0 mm 3 mps 742 mmHg 73%
    05:00 +26°C° 0 mm 3 mps 742 mmHg 74%
    06:00 +25°C° 0 mm 3 mps 742 mmHg 75%
    07:00 +27°C° 0 mm 3 mps 742 mmHg 72%
    08:00 +28°C° 0 mm 3 mps 743 mmHg 69%
    09:00 +29°C° 0 mm 4 mps 743 mmHg 66%
    10:00 +32°C° 0 mm 4 mps 743 mmHg 62%
    11:00 +33°C° 0 mm 4 mps 743 mmHg 57%
    12:00 +35°C° 0 mm 5 mps 743 mmHg 53%
    13:00 +35°C° 0.1 mm 5 mps 742 mmHg 52%
    14:00 +35°C° 0.1 mm 5 mps 742 mmHg 52%
    15:00 +35°C° 0.1 mm 5 mps 742 mmHg 52%
    16:00 +34°C° 0 mm 4 mps 742 mmHg 56%
    17:00 +33°C° 0 mm 3 mps 742 mmHg 59%
    18:00 +31°C° 0 mm 2 mps 742 mmHg 63%
    19:00 +30°C° 0 mm 2 mps 742 mmHg 64%
    20:00 +29°C° 0 mm 2 mps 742 mmHg 65%
    21:00 +29°C° 0 mm 2 mps 742 mmHg 66%
    22:00 +28°C° 0 mm 2 mps 742 mmHg 68%
    23:00 +28°C° 0 mm 2 mps 742 mmHg 69%

    19 September, Thursday

    Time Temperature Precipitation Wind Pressure Humidity
    00:00 +27°C° 0 mm 2 mps 742 mmHg 71%
    01:00 +27°C° 0 mm 2 mps 742 mmHg 72%
    02:00 +27°C° 0 mm 2 mps 742 mmHg 73%
    03:00 +26°C° 0 mm 2 mps 742 mmHg 74%
    04:00 +26°C° 0 mm 2 mps 742 mmHg 76%
    05:00 +26°C° 0 mm 2 mps 743 mmHg 77%
    06:00 +25°C° 0 mm 2 mps 743 mmHg 79%
    07:00 +27°C° 0 mm 2 mps 743 mmHg 74%
    08:00 +28°C° 0 mm 3 mps 744 mmHg 70%
    09:00 +30°C° 0 mm 3 mps 744 mmHg 66%
    10:00 +31°C° 0 mm 3 mps 744 mmHg 61%
    11:00 +34°C° 0 mm 4 mps 744 mmHg 56%
    12:00 +35°C° 0 mm 4 mps 744 mmHg 51%
    13:00 +35°C° 0 mm 4 mps 743 mmHg 50%
    14:00 +35°C° 0 mm 4 mps 743 mmHg 49%
    15:00 +36°C° 0 mm 4 mps 742 mmHg 48%
    16:00 +34°C° 0 mm 3 mps 742 mmHg 51%
    17:00 +33°C° 0 mm 3 mps 742 mmHg 54%
    18:00 +31°C° 0 mm 2 mps 742 mmHg 58%
    19:00 +30°C° 0 mm 2 mps 742 mmHg 59%
    20:00 +29°C° 0 mm 2 mps 742 mmHg 60%
    21:00 +28°C° 0 mm 2 mps 743 mmHg 62%
    22:00 +28°C° 0 mm 2 mps 742 mmHg 63%
    23:00 +27°C° 0 mm 2 mps 742 mmHg 65%

    20 September, Friday

    Time Temperature Precipitation Wind Pressure Humidity
    00:00 +27°C° 0 mm 2 mps 742 mmHg 66%
    01:00 +26°C° 0.2 mm 2 mps 742 mmHg 69%
    02:00 +26°C° 0.2 mm 2 mps 743 mmHg 72%
    03:00 +25°C° 0.2 mm 2 mps 743 mmHg 75%
    04:00 +25°C° 0 mm 3 mps 743 mmHg 76%
    05:00 +25°C° 0 mm 3 mps 743 mmHg 77%
    06:00 +24°C° 0 mm 3 mps 743 mmHg 78%
    07:00 +26°C° 0 mm 4 mps 743 mmHg 74%
    08:00 +27°C° 0 mm 4 mps 743 mmHg 71%
    09:00 +29°C° 0 mm 4 mps 744 mmHg 67%
    10:00 +30°C° 0 mm 5 mps 743 mmHg 62%
    11:00 +33°C° 0 mm 6 mps 743 mmHg 56%
    12:00 +34°C° 0 mm 7 mps 743 mmHg 50%
    13:00 +34°C° 0 mm 7 mps 743 mmHg 49%
    14:00 +35°C° 0 mm 7 mps 742 mmHg 49%
    15:00 +35°C° 0 mm 7 mps 742 mmHg 48%
    16:00 +34°C° 0.1 mm 6 mps 742 mmHg 53%
    17:00 +32°C° 0.1 mm 5 mps 742 mmHg 57%
    18:00 +30°C° 0.1 mm 4 mps 742 mmHg 62%
    19:00 +30°C° 0 mm 4 mps 742 mmHg 59%
    20:00 +29°C° 0 mm 5 mps 742 mmHg 57%
    21:00 +29°C° 0 mm 5 mps 742 mmHg 54%
    22:00 +28°C° 0 mm 5 mps 742 mmHg 57%
    23:00 +28°C° 0 mm 5 mps 742 mmHg 59%
    Show more